Tracking 30995 objects as of 7-Jul-2025
HD Live streaming from Space Station
objects crossing your sky now

STARLINK-1096

Track STARLINK-1096 now!
10-day predictions
STARLINK-1096 is classified as:


NORAD ID: 44942
Int'l Code: 2020-001AE
Perigee: 376.3 km
Apogee: 381.4 km
Inclination: 53.0 °
Period: 92.0 minutes
Semi major axis: 6749 km
RCS: Unknown
Launch date: January 7, 2020
Source: United States (US)
Launch site: AIR FORCE EASTERN TEST RANGE (AFETR)
Your satellite tracking list
DELTA 1 DEB
Track 1 satellite(s)




NASA's NSSDC Master Catalog

Two Line Element Set (TLE):
1 44942U 20001AE  25187.18096952  .00043845  00000-0  43189-3 0  9991
2 44942  52.9964 169.7313 0003779  39.3536 320.7752 15.65539660305533
Source of the keplerian elements: AFSPC